Current Version              Previous Version:    01  02  03  04  05  06  07  08  09  10  11  12  13  14  15  16  17  18  19  20  21  22  23  24  25  26  27  28  29  30  
   31  32  33  34  35  36  37  38  39  40  41  42  43  44  45  46  47  48  49  50  51  52  53  54  55  56  57  58  59  60  

[Printable]
963
ASUS44 KLUB 250001
RWRTX
WEST TEXAS WEATHER ROUNDUP
NATIONAL WEATHER SERVICE LUBBOCK TX
700 PM CDT FRI OCT 24 2014

NOTE: "FAIR" INDICATES FEW OR NO CLOUDS BELOW 12,000 FEET WITH NO
SIGNIFICANT WEATHER AND/OR OBSTRUCTIONS TO VISIBILITY.

TXZ004-006>008-010-012-014-016-OKZ002-250100-
TEXAS PANHANDLE/OKLAHOMA PANHANDLE

CITY           SKY/WX    TMP DP  RH WIND       PRES   REMARKS
AMARILLO       CLEAR     75  45  34 S9        30.11R
BORGER         CLEAR     82  39  21 S6        30.07R
CANADIAN       CLEAR     82  51  35 S3        30.03R
DALHART        CLEAR     76  37  24 S7        30.12S
DUMAS            N/A     77  39  25 S7        30.10S
GUYMON         CLEAR     76  42  29 S6        30.04R
HEREFORD       CLEAR     78  43  28 S8        30.12S
PAMPA          CLEAR     73  46  37 S8        30.09S
$$

TXZ026-029-035-045-048-250100-
SOUTHERN PANHANDLE/SOUTH PLAINS/ROLLING PLAINS

CITY           SKY/WX    TMP DP  RH WIND       PRES   REMARKS
CHILDRESS      CLEAR     83  54  36 S9        30.04S
SEMINOLE       CLEAR     76  51  42 S5        30.14S
LUBBOCK        PTCLDY    76  50  40 S7        30.11S
PLAINVIEW      CLEAR     75  49  39 S5        30.11R
SNYDER         CLEAR     80  57  46 CALM      30.12S
$$

TXZ052-054-060>062-072-078-127-140-154-169-250100-
PERMIAN BASIN/CONCHO VALLEY/BIG COUNTRY/EDWARDS PLATEAU

CITY           SKY/WX    TMP DP  RH WIND       PRES   REMARKS
ABILENE        CLEAR     81  53  37 S6        30.09S
BIG SPRING     CLEAR     80  52  37 SE3       30.13R
JUNCTION       CLEAR     81  56  42 S6        30.10S
MIDLAND        CLEAR     83  45  26 SW6       30.11S
ODESSA         CLEAR     80  45  28 NW7       30.13S
SAN ANGELO     CLEAR     82  51  34 S5        30.09R
SONORA         CLEAR     79  55  44 S5        30.16R
SWEETWATER     CLEAR     82  49  31 CALM      30.14R
WINK           CLEAR     80  50  34 SE6       30.10R
$$

TXZ055-058-074-075-080-082-250100-
FAR WEST/SOUTHWEST MOUNTAINS/TRANS PECOS

CITY           SKY/WX    TMP DP  RH WIND       PRES   REMARKS
ALPINE         CLEAR     78  44  30 CALM      30.26S
DRYDEN           N/A     79  57  46 SE9       30.10R
EL PASO        CLEAR     80  45  28 CALM      30.15F
FORT STOCKTON  CLEAR     82  46  28 CALM      30.12S
MARFA          CLEAR     73  52  46 SE5       30.25S
PECOS          CLEAR     81  53  38 E6        30.09S
PRESIDIO       FAIR      84  47  27 CALM      30.11S
$$

TXZ014-016-019-021>030-083-250100
TEXAS TECH WEST TEXAS MESONET/TEXAS PANHANDLE/NORTHERN SOUTH PLAINS

CITY           SKY/WX    TMP DP  RH WIND       PRES   REMARKS
$$

TXZ033>036-039>041-045>048-250100
TEXAS TECH WEST TEXAS MESONET/SOUTH PLAINS

CITY           SKY/WX    TMP DP  RH WIND       PRES   REMARKS
$$

TXZ031-032-036>038-042>044-250100-
TEXAS TECH WEST TEXAS MESONET/ROLLING PLAINS

CITY           SKY/WX    TMP DP  RH WIND       PRES   REMARKS
$$

TXZ052-054-060>062-072-078-127-140-154-169-250100-
TEXAS TECH WEST TEXAS MESONET/PERMIAN BASIN/
CONCHO VALLEY/BIG COUNTRY/EDWARDS PLATEAU

CITY           SKY/WX    TMP DP  RH WIND       PRES   REMARKS
$$

TXZ055-058-074-075-080-082-250100-
TEXAS TECH WEST TEXAS MESONET/FAR WEST/SOUTHWEST MOUNTAINS/TRANS PECOS

CITY           SKY/WX    TMP DP  RH WIND       PRES   REMARKS
$$